Date String (YYYY-MM-DD hh:mm:ss) UTC,Instrument flags,absolute air pressure of the measurement (hPa),sample flow rate (lpm),inlet stack bypass flow (lpm),air temperature of the measurement (°C),ambient temperature measured by the external sensor (°C),aerosol sample conditioner tube jacket temperature (°C),OPC LED temperature (°C),internal box temperature (°C),relative humidity of the measurement (%),span deviation,mass concentration of particles derived from Lorenz-Mie calculation of OPC scattering (μg/m³),mass concentration of particles derived from Lorenz-Mie calculation of OPC scattering (μg/m³),mass concentration of particles derived from Lorenz-Mie calculation of OPC scattering (μg/m³)
DateTimeUTC,F1_M11,P_M11,Q1_M11,Q2_M11,T1_M11,T2_M11,T3_M11,T4_M11,T5_M11,U1_M11,ZSPAN_M11,X0_M11,X2_M11,X1_M11
2024-04-25 19:00:00,SystemResetWarning,0820.8,4.99,000.00,024.7,023.4,000.0,033.3,026.6,029.4,0001.3,0028.94,0013.00,0010.88
2024-04-25 19:01:00,SystemResetWarning,0820.6,5.00,000.00,024.8,023.7,000.0,033.3,026.7,029.4,0001.5,0029.26,0012.75,0010.73
2024-04-25 19:02:00,SystemResetWarning,0820.9,5.01,000.00,024.9,023.9,000.0,033.3,026.8,029.2,0001.6,0029.53,0012.60,0010.62
2024-04-25 19:03:00,SystemResetWarning,0820.9,5.01,000.00,025.0,024.1,000.0,033.3,026.8,028.8,0001.6,0029.75,0012.51,0010.53
2024-04-25 19:04:00,SystemResetWarning,0820.8,5.00,000.00,025.0,024.3,000.0,033.3,027.0,029.1,0001.6,0030.57,0012.47,0010.46
2024-04-25 19:05:00,SystemResetWarning,0820.8,4.99,000.00,025.1,024.4,000.0,033.3,027.1,029.1,0001.5,0029.66,0012.34,0010.35
2024-04-25 19:06:00,SystemResetWarning,0820.9,4.99,000.00,025.2,024.6,000.0,033.4,027.1,029.2,0001.4,0028.94,0012.19,0010.22
2024-04-25 19:07:00,SystemResetWarning,0820.6,5.00,000.00,025.2,024.7,000.0,033.4,027.2,028.9,0001.1,0029.36,0012.12,0010.18
2024-04-25 19:08:00,SystemResetWarning,0820.6,5.00,000.00,025.3,024.8,000.0,033.4,027.3,028.7,0000.7,0027.57,0012.12,0010.15
2024-04-25 19:09:00,SystemResetWarning,0820.4,5.01,000.00,025.4,024.9,000.0,033.5,027.3,028.9,0000.8,0027.03,0012.18,0010.14
2024-04-25 19:10:00,SystemResetWarning,0820.4,5.01,000.00,025.4,025.0,000.0,033.5,027.4,028.8,0000.5,0026.91,0012.22,0010.18
2024-04-25 19:11:00,SystemResetWarning,0820.4,5.00,000.00,025.5,025.0,000.0,033.6,027.5,028.3,0000.4,0027.01,0012.28,0010.26
2024-04-25 19:12:00,SystemResetWarning,0820.4,5.00,000.00,025.6,025.0,000.0,033.6,027.5,028.3,0000.6,0027.68,0012.46,0010.35
2024-04-25 19:13:00,SystemResetWarning,0820.3,4.99,000.00,025.4,023.5,000.0,033.7,026.6,028.3,0000.7,0028.63,0012.61,0010.43
2024-04-25 19:14:00,SystemResetWarning,0820.2,5.00,000.00,025.0,021.8,000.0,033.7,025.5,029.1,0000.5,0028.76,0012.68,0010.48
2024-04-25 19:15:00,SystemResetWarning,0820.2,5.01,000.00,024.7,021.7,000.0,033.6,025.4,029.7,0000.9,0029.29,0012.79,0010.55
2024-04-25 19:16:00,SystemResetWarning,0820.2,5.02,000.00,024.6,022.1,000.0,033.5,025.6,029.9,0001.2,0030.25,0012.89,0010.65
2024-04-25 19:17:00,SystemResetWarning,0820.3,5.00,000.00,024.6,022.5,000.0,033.4,025.9,030.0,0001.0,0031.19,0012.98,0010.76
2024-04-25 19:18:00,SystemResetWarning,0820.2,5.00,000.00,024.6,022.8,000.0,033.3,026.2,029.9,0001.0,0031.39,0013.07,0010.84
2024-04-25 19:19:00,SystemResetWarning,0820.2,5.00,000.00,024.7,023.2,000.0,033.3,026.4,029.9,0001.3,0031.86,0013.26,0010.92
2024-04-25 19:20:00,SystemResetWarning,0820.2,5.00,000.00,024.7,023.5,000.0,033.2,026.6,030.0,0001.4,0031.32,0013.31,0010.99
2024-04-25 19:21:00,SystemResetWarning,0820.4,5.00,000.00,024.8,023.7,000.0,033.2,026.7,030.5,0001.7,0031.16,0013.29,0011.04
2024-04-25 19:22:00,SystemResetWarning,0820.5,5.00,000.00,024.9,023.9,000.0,033.2,026.8,030.5,0001.8,0031.65,0013.29,0011.06
2024-04-25 19:23:00,SystemResetWarning,0820.1,5.01,000.00,025.0,024.1,000.0,033.3,026.9,029.7,0001.6,0032.54,0013.22,0011.02
2024-04-25 19:24:00,SystemResetWarning,0820.1,5.00,000.00,025.0,024.3,000.0,033.3,027.0,029.7,0001.3,0033.20,0013.22,0011.03
2024-04-25 19:25:00,SystemResetWarning,0820.0,4.99,000.00,025.1,024.4,000.0,033.3,027.0,029.9,0001.4,0033.69,0013.18,0011.01
2024-04-25 19:26:00,SystemResetWarning,0820.0,5.00,000.00,025.2,024.5,000.0,033.3,027.1,029.8,0001.2,0033.70,0013.09,0010.92
2024-04-25 19:27:00,SystemResetWarning,0820.0,5.00,000.00,025.2,024.7,000.0,033.4,027.2,029.5,0001.1,0032.53,0013.03,0010.84
2024-04-25 19:28:00,SystemResetWarning,0820.1,5.00,000.00,025.3,024.8,000.0,033.4,027.3,029.2,0001.1,0031.14,0012.97,0010.80
2024-04-25 19:29:00,SystemResetWarning,0820.1,5.01,000.00,025.4,024.9,000.0,033.5,027.3,029.5,0001.3,0030.72,0012.86,0010.73
2024-04-25 19:30:00,SystemResetWarning,0820.1,5.01,000.00,025.4,024.9,000.0,033.5,027.4,029.6,0001.5,0030.38,0012.67,0010.64
2024-04-25 19:31:00,SystemResetWarning,0820.1,4.99,000.00,025.5,025.0,000.0,033.5,027.4,029.4,0001.2,0032.18,0012.62,0010.55
2024-04-25 19:32:00,SystemResetWarning,0820.0,4.99,000.00,025.4,023.9,000.0,033.6,026.7,029.2,0001.0,0032.89,0012.58,0010.45
2024-04-25 19:33:00,SystemResetWarning,0820.1,5.00,000.00,025.0,022.0,000.0,033.6,025.6,029.7,0000.9,0032.01,0012.50,0010.36
2024-04-25 19:34:00,SystemResetWarning,0820.0,5.01,000.00,024.6,021.6,000.0,033.6,025.3,030.1,0000.7,0030.11,0012.48,0010.34
2024-04-25 19:35:00,SystemResetWarning,0820.0,5.01,000.00,024.5,022.0,000.0,033.4,025.5,030.8,0000.6,0028.13,0012.39,0010.29
2024-04-25 19:36:00,SystemResetWarning,0820.1,5.00,000.00,024.5,022.4,000.0,033.3,025.8,031.2,0000.6,0027.55,0012.38,0010.25
2024-04-25 19:37:00,SystemResetWarning,0820.0,4.98,000.00,024.6,022.8,000.0,033.2,026.1,030.9,0000.8,0027.04,0012.33,0010.26
2024-04-25 19:38:00,SystemResetWarning,0820.0,5.00,000.00,024.6,023.1,000.0,033.2,026.3,030.7,0000.7,0028.33,0012.34,0010.30
2024-04-25 19:39:00,SystemResetWarning,0820.0,5.02,000.00,024.7,023.4,000.0,033.2,026.5,030.4,0000.8,0031.63,0012.38,0010.33
2024-04-25 19:40:00,SystemResetWarning,0820.0,5.01,000.00,024.8,023.6,000.0,033.2,026.6,030.8,0000.8,0032.18,0012.51,0010.41
2024-04-25 19:41:00,SystemResetWarning,0820.0,4.99,000.00,024.8,023.9,000.0,033.2,026.7,030.6,0000.6,0033.12,0012.56,0010.43
2024-04-25 19:42:00,SystemResetWarning,0820.0,5.00,000.00,024.9,024.1,000.0,033.2,026.8,030.0,0000.8,0032.52,0012.55,0010.49
2024-04-25 19:43:00,SystemResetWarning,0820.0,4.99,000.00,025.0,024.2,000.0,033.2,026.9,030.3,0000.9,0030.97,0012.65,0010.60
2024-04-25 19:44:00,SystemResetWarning,0820.0,5.00,000.00,025.0,024.4,000.0,033.3,027.0,030.1,0001.0,0032.26,0012.77,0010.68
2024-04-25 19:45:00,SystemResetWarning,0820.0,5.00,000.00,025.1,024.5,000.0,033.3,027.0,030.2,0000.8,0033.61,0012.83,0010.75
2024-04-25 19:46:00,SystemResetWarning,0820.0,5.00,000.00,025.2,024.6,000.0,033.3,027.1,029.9,0000.9,0033.54,0012.91,0010.79
2024-04-25 19:47:00,SystemResetWarning,0820.0,5.00,000.00,025.3,024.7,000.0,033.4,027.2,030.3,0000.9,0033.41,0013.01,0010.84
2024-04-25 19:48:00,SystemResetWarning,0820.0,5.00,000.00,025.3,024.8,000.0,033.4,027.3,030.1,0000.9,0032.64,0013.01,0010.82
2024-04-25 19:49:00,SystemResetWarning,0820.0,5.01,000.00,025.4,024.9,000.0,033.4,027.3,029.6,0000.8,0032.75,0012.95,0010.76
2024-04-25 19:50:00,SystemResetWarning,0820.0,5.00,000.00,025.5,025.0,000.0,033.5,027.4,029.5,0000.8,0029.90,0012.92,0010.76
2024-04-25 19:51:00,SystemResetWarning,0819.9,4.98,000.00,025.4,024.3,000.0,033.6,027.0,029.8,0000.8,0029.31,0012.85,0010.74
2024-04-25 19:52:00,SystemResetWarning,0819.8,5.00,000.00,025.1,022.8,000.0,033.6,026.1,030.8,0000.9,0028.67,0012.87,0010.75
2024-04-25 19:53:00,SystemResetWarning,0819.8,5.02,000.00,024.9,022.7,000.0,033.6,026.0,031.0,0001.0,0027.44,0012.93,0010.77
2024-04-25 19:54:00,SystemResetWarning,0819.8,4.99,000.00,024.9,023.0,000.0,033.5,026.2,030.6,0000.8,0028.33,0012.98,0010.78
2024-04-25 19:55:00,SystemResetWarning,0819.9,4.99,000.00,024.9,023.3,000.0,033.4,026.5,030.4,0000.7,0027.77,0013.08,0010.88
2024-04-25 19:56:00,SystemResetWarning,0819.8,5.00,000.00,025.0,023.6,000.0,033.4,026.6,030.4,0001.1,0026.83,0013.19,0011.00
2024-04-25 19:57:00,SystemResetWarning,0819.8,5.01,000.00,025.0,023.8,000.0,033.4,026.8,030.3,0001.6,0028.45,0013.36,0011.15
2024-04-25 19:58:00,SystemResetWarning,0819.9,4.99,000.00,025.1,024.1,000.0,033.4,026.9,029.9,0001.8,0028.67,0013.49,0011.32
2024-04-25 19:59:00,SystemResetWarning,0820.0,4.99,000.00,025.1,024.3,000.0,033.4,027.0,030.0,0001.9,0029.91,0013.75,0011.63
